Location: Coffee Creek Observatory
(38.8077°N, 94.7179°W)
Time: 19:27:48
(UTC-05:00)

Amateur Radio Satellites - All Passes

Search period start: 27 August 2016 18:57
Search period end: 28 August 2016 18:57
Location: Coffee Creek Observatory, 38.8077°N, 94.7179°W

Satellite Date Start Highest point End Downlink Frequencies (MHz)
Time Altitude Azimuth
Cosmos 2491 27 Aug 19:09:54 19:18:37 89° 273° (W) 19:27:26 435.465 / 435.565
GOMX 1 27 Aug 19:11:41 19:16:38 62° 260° (W) 19:21:57 467.674
CANX-2 27 Aug 19:13:09 19:15:01 13° 65° (ENE) 19:16:52 2200.000
Cubesat XI-IV 27 Aug 19:13:50 19:19:05 57° 259° (W) 19:24:21 437.490
DOVE 4 27 Aug 19:18:35 19:23:42 74° 76° (ENE) 19:29:01 437.250
CUTE 1.7 + AOD 2 27 Aug 19:19:13 19:21:07 13° 65° (ENE) 19:23:02 437.475
CUTE-I 27 Aug 19:25:59 19:31:03 43° 261° (W) 19:36:07 437.470
NOAA 15 27 Aug 19:28:01 19:32:39 32° 263° (W) 19:37:21 137.62
YUBILEINY 27 Aug 19:32:04 19:39:52 38° 274° (W) 19:47:35 435.215
BEESAT 2 27 Aug 19:33:58 19:37:53 53° 56° (NE) 19:41:48 435.950
BRITE-PL 27 Aug 19:37:54 19:40:48 16° 271° (W) 19:43:51 437.365/2234.400
LilacSat-2 27 Aug 19:42:04 19:44:57 20° 265° (W) 19:47:49 437.200
Cosmos 2504 27 Aug 19:48:07 19:55:19 74° 266° (W) 20:02:27 435.465 / 435.565
BEESAT 3 27 Aug 19:52:22 19:56:10 45° 244° (WSW) 19:59:56 437.485
HO-68 27 Aug 19:56:48 20:03:45 56° 69° (ENE) 20:10:46 435.675
CINEMA 3 27 Aug 20:00:06 20:05:00 55° 74° (ENE) 20:09:52 145.822/145.860
STRAND 1 27 Aug 20:03:55 20:08:34 34° 97° (E) 20:13:12 437.568
NOAA 18 27 Aug 20:06:41 20:10:51 22° 266° (W) 20:15:03 137.9125
UWE-3 27 Aug 20:18:27 20:21:12 16° 66° (ENE) 20:23:55 435.000/436.395/437.385
CUBEBUG 2 27 Aug 20:19:33 20:23:21 25° 69° (ENE) 20:27:05 437.445
SEEDS 27 Aug 20:24:52 20:28:52 49° 74° (ENE) 20:32:54 437.485
AIST 1 27 Aug 20:26:10 20:29:53 26° 75° (ENE) 20:33:33
ZACube-1 27 Aug 20:33:29 20:35:52 14° 66° (ENE) 20:38:13 437.345
CANX-2 27 Aug 20:46:18 20:50:24 52° 261° (W) 20:54:31 2200.000
CUTE 1.7 + AOD 2 27 Aug 20:52:25 20:56:30 51° 260° (W) 21:00:37 437.475
AAUSAT CUBESAT 2 27 Aug 20:55:59 21:00:01 61° 75° (ENE) 21:04:06 437.432
DOVE 4 27 Aug 20:59:44 21:01:55 13° 272° (W) 21:04:09 437.250
DELFI C3 27 Aug 21:03:34 21:04:05 10° 64° (ENE) 21:04:36 145.870
COMPASS 1 27 Aug 21:03:58 21:08:06 82° 260° (W) 21:12:15 437.405
Cosmos 2491 27 Aug 21:11:21 21:16:44 17° 297° (WNW) 21:22:10 435.465 / 435.565
BEESAT 2 27 Aug 21:13:40 21:15:14 12° 252° (WSW) 21:16:47 435.950
PCSat 27 Aug 21:21:56 21:27:10 47° 57° (ENE) 21:32:22 145.827
Oscar 11 27 Aug 21:38:21 21:42:38 74° 76° (ENE) 21:46:56 145.826/435.025
CINEMA 3 27 Aug 21:39:24 21:42:24 16° 269° (W) 21:45:25 145.822/145.860
PRISM 27 Aug 21:39:59 21:43:52 36° 99° (E) 21:47:43 437.425
STRAND 1 27 Aug 21:43:22 21:47:34 26° 293° (WNW) 21:51:46 437.568
AIST 2 27 Aug 21:45:18 21:49:25 55° 57° (ENE) 21:53:31 435.215
FUNcube-1 27 Aug 21:45:42 21:50:09 83° 79° (E) 21:54:33 145.935
HO-68 27 Aug 21:45:58 21:51:47 26° 265° (W) 21:57:38 435.675
GONETS M04 27 Aug 21:52:45 21:56:32 13° 59° (ENE) 22:00:17
UWE-3 27 Aug 21:52:49 21:57:16 48° 261° (W) 22:01:38 435.000/436.395/437.385
CUBEBUG 2 27 Aug 21:55:38 21:59:48 31° 263° (W) 22:03:54 437.445
SEEDS 27 Aug 22:03:12 22:04:51 12° 269° (W) 22:06:28 437.485
AIST 1 27 Aug 22:03:49 22:07:20 24° 271° (W) 22:10:50
ZACube-1 27 Aug 22:07:21 22:11:43 52° 260° (W) 22:16:01 437.345
UNISAT 6 27 Aug 22:31:24 22:33:24 13° 91° (E) 22:35:24 437.425
DELFI C3 27 Aug 22:34:32 22:38:24 58° 260° (W) 22:42:18 145.870
HUMSAT D 27 Aug 22:53:03 22:57:14 79° 258° (WSW) 23:01:22 437.325/437.525
Cosmos 2499 27 Aug 22:53:11 22:58:22 21° 69° (ENE) 23:03:33 435.465 / 435.565
SO-50 27 Aug 22:58:09 23:00:45 15° 108° (ESE) 23:03:22 436.795
CUBEBUG 1 27 Aug 22:58:42 23:00:30 12° 63° (ENE) 23:02:18 437.445
AUBIESAT-1 27 Aug 22:59:16 23:03:38 43° 67° (ENE) 23:08:02 437.475
M-CUBED/EXP-1 PRIME 27 Aug 23:04:45 23:09:20 61° 70° (ENE) 23:14:00 437.505
PCSat 27 Aug 23:06:04 23:10:12 23° 254° (WSW) 23:14:20 145.827
ANTELSAT 27 Aug 23:06:48 23:10:41 33° 97° (E) 23:14:31 437.575/2403.000
DX 1 27 Aug 23:15:22 23:15:42 10° 62° (ENE) 23:16:03 434.975-435.025
PRISM 27 Aug 23:16:03 23:18:52 18° 294° (WNW) 23:21:41 437.425
50 SAT 27 Aug 23:24:30 23:26:35 15° 67° (ENE) 23:28:40 437.505
AIST 2 27 Aug 23:25:32 23:27:25 13° 252° (WSW) 23:29:17 435.215
ESTCUBE 1 27 Aug 23:35:15 23:39:33 47° 73° (ENE) 23:43:52 437.505/2401.250
TIGRISAT 27 Aug 23:37:26 23:41:43 73° 101° (ESE) 23:45:56 435.000
AISAT 27 Aug 23:43:21 23:47:19 33° 70° (ENE) 23:51:19 437.250
QB50P2 27 Aug 23:44:17 23:45:59 12° 91° (E) 23:47:40 145.880/145.840
GONETS M04 27 Aug 23:46:14 23:55:07 71° 81° (E) 00:03:55
POLYITAN 1 27 Aug 23:46:47 23:48:30 12° 91° (E) 23:50:14 437.675
UKube-1 27 Aug 23:52:26 23:55:38 21° 67° (ENE) 23:58:51 .
NANOSAT C BR1 27 Aug 23:54:46 23:57:04 14° 92° (E) 23:59:22 145.865
UNISAT 6 28 Aug 00:06:16 00:10:24 47° 287° (WNW) 00:14:28 437.425
JAS-2 28 Aug 00:14:58 00:20:12 22° 93° (E) 00:25:43 435.910
CUSAT 1 28 Aug 00:21:20 00:24:08 60° 281° (WNW) 00:27:36 437.405
VELOX 1 28 Aug 00:30:08 00:34:34 79° 258° (WSW) 00:39:03 145.980
O/OREOS (USA 219) 28 Aug 00:31:39 00:36:17 85° 70° (ENE) 00:40:52 437.305
CUBEBUG 1 28 Aug 00:31:53 00:36:13 61° 259° (W) 00:40:37 437.445
RS-15 28 Aug 00:32:43 00:41:53 29° 102° (ESE) 00:51:24 29.354- 29.394
AUBIESAT-1 28 Aug 00:34:55 00:38:11 19° 262° (W) 00:41:29 437.475
BUGSAT 1 28 Aug 00:35:17 00:37:49 16° 93° (E) 00:40:19 437.445
SO-50 28 Aug 00:35:53 00:40:43 64° 303° (WNW) 00:45:31 436.795
QB50P1 28 Aug 00:37:26 00:41:33 48° 100° (E) 00:45:36 145.935-145.965
M-CUBED/EXP-1 PRIME 28 Aug 00:41:45 00:44:09 14° 264° (W) 00:46:34 437.505
ANTELSAT 28 Aug 00:44:06 00:47:10 19° 293° (WNW) 00:50:12 437.575/2403.000
Cosmos 2499 28 Aug 00:45:03 00:51:58 61° 267° (W) 00:59:00 435.465 / 435.565
DX 1 28 Aug 00:46:53 00:51:15 75° 258° (WSW) 00:55:38 434.975-435.025
POPSAT HIP 1 28 Aug 00:47:24 00:51:37 63° 102° (ESE) 00:55:45 437.405
SPROUT 28 Aug 00:48:37 00:52:55 82° 76° (ENE) 00:57:16 437.525
50 SAT 28 Aug 00:56:43 00:59:53 30° 263° (W) 01:03:05 437.505
TISAT 1 28 Aug 01:07:44 01:11:20 28° 70° (ENE) 01:14:57 437.305
ESTCUBE 1 28 Aug 01:14:05 01:16:35 15° 268° (W) 01:19:07 437.505/2401.250
DUCHIFAT 1 28 Aug 01:14:55 01:19:06 68° 285° (WNW) 01:23:14 145.980
PHONESAT 2.4 28 Aug 01:17:37 01:19:16 14° 147° (SSE) 01:20:55 2401.200-2431.200
QB50P2 28 Aug 01:17:58 01:22:04 50° 286° (WNW) 01:26:08 145.880/145.840
AISAT 28 Aug 01:20:25 01:23:49 21° 265° (W) 01:27:15 437.250
POLYITAN 1 28 Aug 01:20:30 01:24:35 50° 286° (WNW) 01:28:37 437.675
DANDE 28 Aug 01:20:41 01:23:02 31° 284° (WNW) 01:25:32 436.750
UKube-1 28 Aug 01:27:33 01:31:26 33° 262° (W) 01:35:22 .
NANOSAT C BR1 28 Aug 01:29:01 01:33:00 42° 287° (WNW) 01:36:56 145.865
GONETS M04 28 Aug 01:44:34 01:51:00 23° 280° (W) 01:57:26
ITUPSAT 1 28 Aug 01:50:27 01:53:28 17° 64° (ENE) 01:56:30 437.325
JAS-2 28 Aug 01:58:42 02:05:30 69° 287° (WNW) 02:13:02 435.910
Oscar 19 28 Aug 02:07:01 02:11:38 31° 97° (E) 02:16:12 437.125/150
BUGSAT 1 28 Aug 02:09:30 02:13:20 37° 288° (WNW) 02:17:05 437.445
QB50P1 28 Aug 02:14:45 02:16:53 14° 295° (WNW) 02:19:00 145.935-145.965
SO-50 28 Aug 02:21:03 02:22:08 11° 323° (NW) 02:23:12 436.795
SWISSCUBE 28 Aug 02:21:44 02:26:09 39° 70° (ENE) 02:30:33 437.505
POPSAT HIP 1 28 Aug 02:25:45 02:26:49 11° 297° (WNW) 02:27:52 437.405
BEESAT 28 Aug 02:38:35 02:43:12 53° 73° (ENE) 02:47:50 436.000
RS-15 28 Aug 02:41:33 02:53:05 76° 304° (WNW) 03:05:18 29.354- 29.394
TISAT 1 28 Aug 02:43:33 02:46:56 23° 265° (W) 02:50:21 437.305
PHONESAT 2.4 28 Aug 02:52:16 02:55:15 65° 162° (SSE) 02:58:14 2401.200-2431.200
Gurwin Techsat 1B 28 Aug 03:19:10 03:24:30 71° 102° (ESE) 03:29:46 435.225
ITAMSAT 1 28 Aug 03:22:17 03:26:11 21° 94° (E) 03:30:04 435.822/435.867
ITUPSAT 1 28 Aug 03:26:17 03:30:53 50° 260° (W) 03:35:31 437.325
Oscar 19 28 Aug 03:46:22 03:50:51 30° 292° (WNW) 03:55:19 437.125/150
JAS-2 28 Aug 03:46:59 03:49:31 12° 303° (WNW) 03:52:08 435.910
AO-7 28 Aug 03:58:10 04:04:56 27° 95° (E) 04:11:37 29.400- 29.500
SWISSCUBE 28 Aug 04:00:35 04:04:03 20° 266° (W) 04:07:32 437.505
KKS-1 28 Aug 04:18:07 04:22:32 65° 75° (ENE) 04:27:00 437.445
BEESAT 28 Aug 04:18:37 04:21:16 15° 268° (W) 04:23:56 436.000
MOZHAYETS 4 28 Aug 04:26:22 04:30:55 81° 256° (WSW) 04:35:30
PHONESAT 2.4 28 Aug 04:28:40 04:31:39 59° 358° (N) 04:34:37 2401.200-2431.200
AO-85 28 Aug 04:36:16 04:39:15 15° 108° (ESE) 04:42:10 145.980
STARS 28 Aug 04:53:00 04:57:25 77° 77° (ENE) 05:01:52 437.465
RS-15 28 Aug 04:58:28 05:08:05 27° 331° (NNW) 05:18:04 29.354- 29.394
ITAMSAT 1 28 Aug 05:00:55 05:05:48 43° 289° (WNW) 05:10:40 435.822/435.867
Gurwin Techsat 1B 28 Aug 05:00:56 05:03:48 15° 299° (WNW) 05:06:41 435.225
Cosmos 2491 28 Aug 05:22:05 05:30:25 44° 75° (ENE) 05:38:43 435.465 / 435.565
HORYU 2 28 Aug 05:33:31 05:36:48 20° 95° (E) 05:40:05 437.375
CUBESAT XI-V 28 Aug 05:47:22 05:51:58 89° 78° (ENE) 05:56:38 437.345
AO-7 28 Aug 05:49:58 05:58:08 63° 293° (WNW) 06:06:15 29.400- 29.500
KKS-1 28 Aug 05:58:32 05:59:31 11° 270° (W) 06:00:28 437.445
BRITE-PL 28 Aug 06:03:41 06:08:10 23° 92° (E) 06:12:32 437.365/2234.400
PHONESAT 2.4 28 Aug 06:05:06 06:08:06 86° 187° (S) 06:11:05 2401.200-2431.200
NOAA 15 28 Aug 06:06:47 06:08:36 12° 90° (E) 06:10:26 137.62
AO-85 28 Aug 06:13:56 06:19:16 70° 303° (WNW) 06:24:17 145.980
YUBILEINY 28 Aug 06:33:47 06:42:16 54° 90° (E) 06:50:46 435.215
Cosmos 2504 28 Aug 06:34:25 06:39:22 17° 80° (E) 06:44:08 435.465 / 435.565
NOAA 18 28 Aug 06:48:48 06:52:56 22° 94° (E) 06:57:02 137.9125
HORYU 2 28 Aug 07:09:27 07:13:25 33° 290° (WNW) 07:17:22 437.375
GOMX 1 28 Aug 07:15:02 07:20:17 48° 98° (E) 07:25:13 467.674
LilacSat-2 28 Aug 07:15:36 07:19:13 44° 99° (E) 07:22:49 437.200
STRAND 1 28 Aug 07:18:27 07:23:16 44° 71° (ENE) 07:28:05 437.568
RS-15 28 Aug 07:18:32 07:26:42 19° 8° (N) 07:34:56 29.354- 29.394
Cosmos 2491 28 Aug 07:19:09 07:27:05 39° 274° (W) 07:35:02 435.465 / 435.565
DOVE 4 28 Aug 07:20:06 07:24:01 23° 92° (E) 07:27:45 437.250
SO-50 28 Aug 07:30:22 07:32:02 12° 39° (NE) 07:33:43 436.795
Cubesat XI-IV 28 Aug 07:32:14 07:37:32 64° 102° (ESE) 07:42:47 437.490
BRITE-PL 28 Aug 07:41:21 07:46:47 47° 289° (WNW) 07:52:05 437.365/2234.400
PHONESAT 2.4 28 Aug 07:41:53 07:44:11 20° 210° (SSW) 07:46:28 2401.200-2431.200
NOAA 15 28 Aug 07:43:36 07:48:55 78° 286° (WNW) 07:54:14 137.62
CUTE-I 28 Aug 07:43:55 07:49:16 83° 106° (ESE) 07:54:34 437.470
AO-7 28 Aug 07:45:41 07:49:16 14° 313° (NW) 07:52:51 29.400- 29.500
CINEMA 3 28 Aug 07:58:26 08:00:31 13° 90° (E) 08:02:34 145.822/145.860
AO-85 28 Aug 07:58:31 08:00:32 12° 320° (NW) 08:02:30 145.980
Cosmos 2504 28 Aug 08:23:15 08:31:47 85° 276° (W) 08:39:45 435.465 / 435.565
NOAA 18 28 Aug 08:28:35 08:33:47 46° 290° (WNW) 08:38:58 137.9125
PRISM 28 Aug 08:28:35 08:31:45 22° 68° (ENE) 08:34:58 437.425
YUBILEINY 28 Aug 08:31:45 08:39:23 32° 289° (WNW) 08:47:05 435.215
CANX-2 28 Aug 08:32:45 08:36:24 27° 96° (E) 08:40:02 2200.000
CUTE 1.7 + AOD 2 28 Aug 08:38:44 08:42:23 28° 96° (E) 08:46:02 437.475
AAUSAT CUBESAT 2 28 Aug 08:42:13 08:42:58 10° 90° (E) 08:43:43 437.432
COMPASS 1 28 Aug 08:49:00 08:51:47 17° 93° (E) 08:54:33 437.405
LilacSat-2 28 Aug 08:51:41 08:53:07 12° 294° (WNW) 08:54:32 437.200
GOMX 1 28 Aug 08:53:56 08:57:54 21° 295° (WNW) 09:01:44 467.674
AIST 1 28 Aug 08:55:03 08:57:46 16° 86° (E) 09:00:31
DOVE 4 28 Aug 08:57:12 09:01:48 36° 290° (WNW) 09:06:09 437.250
STRAND 1 28 Aug 08:58:53 09:02:36 20° 266° (W) 09:06:20 437.568
ISS 28 Aug 09:00:19 09:03:34 70° 139° (SE) 09:06:50 145.825
SO-50 28 Aug 09:08:42 09:13:18 80° 58° (ENE) 09:17:47 436.795
CUSAT 1 28 Aug 09:13:03 09:15:48 13° 66° (ENE) 09:18:42 437.405
HO-68 28 Aug 09:13:12 09:20:20 66° 103° (ESE) 09:27:25 435.675
Cubesat XI-IV 28 Aug 09:13:51 09:17:02 16° 298° (WNW) 09:20:14 437.490
CUTE-I 28 Aug 09:26:22 09:28:33 13° 300° (WNW) 09:30:45 437.470
BEESAT 2 28 Aug 09:26:49 09:28:26 12° 108° (ESE) 09:30:05 435.950
Oscar 11 28 Aug 09:28:13 09:30:38 15° 92° (E) 09:33:03 145.826/435.025
UNISAT 6 28 Aug 09:29:46 09:31:29 12° 64° (ENE) 09:33:12 437.425
RS-15 28 Aug 09:32:52 09:44:14 39° 41° (NE) 09:55:26 29.354- 29.394
CINEMA 3 28 Aug 09:33:39 09:38:01 50° 287° (WNW) 09:42:11 145.822/145.860
FUNcube-1 28 Aug 09:36:18 09:38:52 16° 93° (E) 09:41:24 145.935
BEESAT 3 28 Aug 09:41:27 09:45:04 37° 115° (ESE) 09:48:43 437.485
UWE-3 28 Aug 09:43:58 09:47:47 34° 97° (E) 09:51:33 435.000/436.395/437.385
SEEDS 28 Aug 09:45:15 09:49:27 68° 284° (WNW) 09:53:38 437.485
CUBEBUG 2 28 Aug 09:47:23 09:51:35 59° 100° (E) 09:55:40 437.445
ZACube-1 28 Aug 09:57:13 10:00:55 30° 97° (E) 10:04:33 437.345
PRISM 28 Aug 10:03:27 10:06:55 27° 263° (W) 10:10:26 437.425
ANTELSAT 28 Aug 10:04:15 10:08:07 27° 70° (ENE) 10:11:57 437.575/2403.000
CANX-2 28 Aug 10:08:46 10:12:06 23° 291° (WNW) 10:15:26 2200.000
DELFI C3 28 Aug 10:13:59 10:16:51 19° 94° (E) 10:19:43 145.870
AAUSAT CUBESAT 2 28 Aug 10:14:42 10:18:47 57° 285° (WNW) 10:22:52 437.432
DANDE 28 Aug 10:14:42 10:17:35 14° 71° (ENE) 10:20:47 436.750
CUTE 1.7 + AOD 2 28 Aug 10:14:45 10:18:04 23° 291° (WNW) 10:21:24 437.475
Cosmos 2504 28 Aug 10:21:38 10:26:12 16° 295° (WNW) 10:30:38 435.465 / 435.565
COMPASS 1 28 Aug 10:23:37 10:27:26 35° 288° (WNW) 10:31:15 437.405
AIST 1 28 Aug 10:30:59 10:35:01 37° 282° (WNW) 10:39:06
TIGRISAT 28 Aug 10:34:17 10:38:46 55° 74° (ENE) 10:43:12 435.000
ISS 28 Aug 10:37:56 10:40:20 18° 336° (NNW) 10:42:43 145.825
HUMSAT D 28 Aug 10:38:40 10:41:24 17° 94° (E) 10:44:06 437.325/437.525
CUSAT 1 28 Aug 10:51:51 10:58:26 73° 80° (E) 11:06:15 437.405
GONETS M04 28 Aug 10:54:07 10:58:27 15° 76° (ENE) 11:02:48
BEESAT 2 28 Aug 11:01:57 11:05:48 50° 304° (NW) 11:09:41 435.950
HO-68 28 Aug 11:02:01 11:07:26 24° 301° (WNW) 11:12:50 435.675
Oscar 11 28 Aug 11:02:52 11:06:58 44° 287° (WNW) 11:11:04 145.826/435.025
UNISAT 6 28 Aug 11:03:03 11:07:38 68° 259° (WSW) 11:12:10 437.425
FUNcube-1 28 Aug 11:11:26 11:15:14 36° 288° (WNW) 11:19:02 145.935
BEESAT 3 28 Aug 11:20:02 11:22:52 19° 312° (NW) 11:25:43 437.485
UWE-3 28 Aug 11:21:09 11:23:59 18° 293° (WNW) 11:26:47 435.000/436.395/437.385
BUGSAT 1 28 Aug 11:25:33 11:26:30 11° 63° (ENE) 11:27:27 437.445
CUBEBUG 2 28 Aug 11:26:25 11:27:39 11° 297° (WNW) 11:28:51 437.445
QB50P1 28 Aug 11:28:36 11:32:22 31° 71° (ENE) 11:36:08 145.935-145.965
Cosmos 2499 28 Aug 11:29:19 11:34:38 19° 82° (E) 11:39:43 435.465 / 435.565
ESTCUBE 1 28 Aug 11:31:27 11:32:41 11° 90° (E) 11:33:55 437.505/2401.250
ZACube-1 28 Aug 11:33:58 11:37:00 20° 292° (WNW) 11:40:00 437.345
POPSAT HIP 1 28 Aug 11:38:25 11:42:24 39° 72° (ENE) 11:46:24 437.405
ANTELSAT 28 Aug 11:40:51 11:44:45 27° 264° (W) 11:48:35 437.575/2403.000
JUGNU 28 Aug 11:43:02 11:43:17 10° 172° (S) 11:43:32 437.505
AIST 2 28 Aug 11:43:11 11:45:33 15° 109° (ESE) 11:47:56 435.215
RS-15 28 Aug 11:45:28 11:57:45 72° 245° (WSW) 12:09:44 29.354- 29.394
DELFI C3 28 Aug 11:48:13 11:51:42 29° 289° (WNW) 11:55:12 145.870
DANDE 28 Aug 11:54:53 12:00:30 86° 262° (W) 12:07:49 436.750
PCSat 28 Aug 12:02:02 12:07:18 56° 113° (ESE) 12:12:36 145.827
DUCHIFAT 1 28 Aug 12:04:58 12:09:13 72° 76° (ENE) 12:13:28 145.980
QB50P2 28 Aug 12:08:41 12:12:58 84° 257° (WSW) 12:17:16 145.880/145.840
JAS-2 28 Aug 12:10:53 12:15:45 43° 70° (ENE) 12:20:56 435.910
POLYITAN 1 28 Aug 12:11:11 12:15:29 82° 260° (W) 12:19:47 437.675
HUMSAT D 28 Aug 12:13:25 12:17:05 33° 288° (WNW) 12:20:47 437.325/437.525
TIGRISAT 28 Aug 12:13:30 12:15:44 13° 268° (W) 12:17:57 435.000
AUBIESAT-1 28 Aug 12:14:19 12:17:57 33° 102° (ESE) 12:21:18 437.475
NANOSAT C BR1 28 Aug 12:19:09 12:23:24 71° 258° (WSW) 12:27:40 145.865
M-CUBED/EXP-1 PRIME 28 Aug 12:20:27 12:24:26 51° 104° (ESE) 12:28:04 437.505
CUBEBUG 1 28 Aug 12:22:08 12:25:53 26° 96° (E) 12:29:36 437.445
VELOX 1 28 Aug 12:22:14 12:25:39 21° 95° (E) 12:29:03 145.980
50 SAT 28 Aug 12:26:12 12:29:01 21° 96° (E) 12:31:49 437.505
CUSAT 1 28 Aug 12:35:17 12:40:03 20° 272° (W) 12:45:18 437.405
DX 1 28 Aug 12:37:07 12:40:23 20° 95° (E) 12:43:38 434.975-435.025
SPROUT 28 Aug 12:37:12 12:39:43 15° 93° (E) 12:42:12 437.525
GONETS M04 28 Aug 12:45:04 12:53:48 84° 95° (E) 13:02:40
BUGSAT 1 28 Aug 12:57:03 13:01:17 67° 259° (W) 13:05:32 437.445
Gurwin Techsat 1B 28 Aug 13:02:56 13:05:03 12° 60° (ENE) 13:07:10 435.225
QB50P1 28 Aug 13:04:56 13:08:09 21° 266° (W) 13:11:22 145.935-145.965
ESTCUBE 1 28 Aug 13:05:23 13:09:53 65° 285° (WNW) 13:14:22 437.505/2401.250
O/OREOS (USA 219) 28 Aug 13:07:02 13:08:11 11° 97° (E) 13:09:21 437.305
AISAT 28 Aug 13:10:29 13:14:58 79° 103° (ESE) 13:19:25 437.250
UKube-1 28 Aug 13:15:26 13:19:34 42° 99° (E) 13:23:40 .
POPSAT HIP 1 28 Aug 13:15:37 13:18:20 16° 267° (W) 13:21:02 437.405
Cosmos 2499 28 Aug 13:18:46 13:26:59 74° 278° (W) 13:34:36 435.465 / 435.565
AIST 2 28 Aug 13:19:42 13:23:38 44° 305° (NW) 13:27:37 435.215
Oscar 19 28 Aug 13:22:29 13:27:16 40° 70° (ENE) 13:32:05 437.125/150
JUGNU 28 Aug 13:29:36 13:31:22 11° 183° (S) 13:33:07 437.505
DANDE 28 Aug 13:40:46 13:42:57 12° 272° (W) 13:45:17 436.750
PCSat 28 Aug 13:46:53 13:51:02 22° 311° (NW) 13:55:13 145.827
AUBIESAT-1 28 Aug 13:49:26 13:52:06 17° 300° (WNW) 13:54:40 437.475
ISS 28 Aug 13:53:51 13:55:32 13° 17° (NNE) 13:57:13 145.825
M-CUBED/EXP-1 PRIME 28 Aug 13:56:35 13:58:24 13° 302° (WNW) 14:00:11 437.505
JAS-2 28 Aug 13:57:21 14:01:10 20° 268° (W) 14:05:07 435.910
VELOX 1 28 Aug 13:58:09 14:02:08 33° 290° (WNW) 14:06:06 145.980
CUBEBUG 1 28 Aug 13:58:23 14:02:04 26° 291° (WNW) 14:05:43 437.445
50 SAT 28 Aug 13:59:38 14:02:29 22° 290° (WNW) 14:05:21 437.505
RS-15 28 Aug 14:02:00 14:07:53 15° 265° (W) 14:13:43 29.354- 29.394
SPROUT 28 Aug 14:11:48 14:15:50 41° 288° (WNW) 14:19:50 437.525
DX 1 28 Aug 14:12:41 14:16:37 33° 290° (WNW) 14:20:32 434.975-435.025
SWISSCUBE 28 Aug 14:25:52 14:26:50 11° 90° (E) 14:27:49 437.505
TISAT 1 28 Aug 14:27:40 14:31:49 57° 101° (E) 14:35:55 437.305
ITAMSAT 1 28 Aug 14:38:53 14:43:19 29° 67° (ENE) 14:47:45 435.822/435.867
Gurwin Techsat 1B 28 Aug 14:38:55 14:44:14 84° 257° (WSW) 14:49:36 435.225
BEESAT 28 Aug 14:41:23 14:44:02 15° 92° (E) 14:46:40 436.000
O/OREOS (USA 219) 28 Aug 14:42:32 14:46:57 63° 293° (WNW) 14:51:28 437.305
GONETS M04 28 Aug 14:45:47 14:51:44 20° 296° (WNW) 14:57:45
AO-85 28 Aug 14:47:35 14:51:49 69° 57° (ENE) 14:55:44 145.980
UKube-1 28 Aug 14:52:30 14:55:15 17° 295° (WNW) 14:58:00 .
AO-7 28 Aug 14:55:45 15:03:03 35° 60° (ENE) 15:10:21 29.400- 29.500
Oscar 19 28 Aug 15:02:40 15:06:41 23° 266° (W) 15:10:45 437.125/150
SRMSAT 28 Aug 15:08:07 15:09:55 11° 179° (S) 15:11:42 437.500
Cosmos 2499 28 Aug 15:18:22 15:21:17 12° 297° (WNW) 15:24:09 435.465 / 435.565
ITUPSAT 1 28 Aug 15:27:52 15:32:26 45° 99° (E) 15:37:00 437.325
ISS 28 Aug 15:29:21 15:32:35 55° 36° (NE) 15:35:48 145.825
SWISSCUBE 28 Aug 16:00:20 16:05:06 72° 286° (WNW) 16:09:50 437.505
TISAT 1 28 Aug 16:05:24 16:06:57 12° 296° (WNW) 16:08:29 437.305
KKS-1 28 Aug 16:12:02 16:14:16 14° 92° (E) 16:16:30 437.445
BEESAT 28 Aug 16:17:28 16:22:06 53° 288° (WNW) 16:26:44 436.000
ITAMSAT 1 28 Aug 16:18:05 16:22:40 32° 263° (W) 16:27:17 435.822/435.867
MOZHAYETS 4 28 Aug 16:23:04 16:26:53 25° 95° (E) 16:30:41
HORYU 2 28 Aug 16:30:48 16:33:44 17° 65° (ENE) 16:36:39 437.375
STARS 28 Aug 16:45:07 16:47:38 15° 92° (E) 16:50:09 437.465
YUBILEINY 28 Aug 16:46:18 16:53:09 24° 67° (ENE) 16:59:54 435.215
AO-7 28 Aug 16:47:23 16:55:29 52° 258° (WSW) 17:03:36 29.400- 29.500
ITUPSAT 1 28 Aug 17:06:38 17:09:55 19° 295° (WNW) 17:13:11 437.325
ISS 28 Aug 17:06:56 17:08:43 14° 231° (SW) 17:10:30 145.825
BRITE-PL 28 Aug 17:13:30 17:17:08 21° 64° (ENE) 17:20:57 437.365/2234.400
Cubesat XI-IV 28 Aug 17:17:08 17:18:59 12° 59° (ENE) 17:20:49 437.490
NOAA 15 28 Aug 17:24:51 17:28:21 18° 63° (ENE) 17:31:52 137.62
CUTE-I 28 Aug 17:27:25 17:30:22 15° 61° (ENE) 17:33:19 437.470
CUBESAT XI-V 28 Aug 17:45:41 17:49:32 25° 95° (E) 17:53:22 437.345
KKS-1 28 Aug 17:46:47 17:51:07 51° 287° (WNW) 17:55:24 437.445
LilacSat-2 28 Aug 17:56:59 17:59:44 19° 69° (ENE) 18:02:30 437.200
MOZHAYETS 4 28 Aug 18:00:04 18:03:59 29° 291° (WNW) 18:07:55
BEESAT 3 28 Aug 18:00:15 18:02:57 17° 47° (NE) 18:05:38 437.485
HORYU 2 28 Aug 18:05:42 18:09:56 42° 261° (W) 18:14:11 437.375
NOAA 18 28 Aug 18:13:26 18:18:29 38° 68° (ENE) 18:23:32 137.9125
Cosmos 2504 28 Aug 18:18:20 18:24:29 29° 72° (ENE) 18:30:32 435.465 / 435.565
STARS 28 Aug 18:20:01 18:24:13 45° 288° (WNW) 18:28:22 437.465
GOMX 1 28 Aug 18:21:07 18:25:55 44° 71° (ENE) 18:31:00 467.674
Cosmos 2491 28 Aug 18:21:25 18:29:43 52° 89° (E) 18:38:05 435.465 / 435.565
DOVE 4 28 Aug 18:23:43 18:27:41 23° 66° (ENE) 18:31:43 437.250
